N1JOT Weather Reports


Display with metric or nautical units.
time (UTC)temp
F
wind
direction
speed
MPH
gust
MPH
rain 1hr
in
rain 24hr
in
rain mn
in
humidity
%
barometer
mb
20220818223600 78 254 1.0 6.0 0.00 0.00 0.00 46 1011.3
20220818223122 78 209 1.0 6.0 0.00 0.00 0.00 45 1011.2
20220818222602 79 221 2.0 9.0 0.00 0.00 0.00 45 1011.1
20220818222058 79 211 1.0 9.0 0.00 0.00 0.00 44 1011.1
20220818221707 79 225 1.0 4.0 0.00 0.00 0.00 44 1011.0
20220818221103 79 274 1.0 8.0 0.00 0.00 0.00 43 1010.9
20220818220600 79 234 1.0 8.0 0.00 0.00 0.00 43 1010.8
20220818220118 80 250 2.0 8.0 0.00 0.00 0.00 42 1010.8
20220818215600 80 229 1.0 8.0 0.00 0.00 0.00 43 1010.8
20220818215100 80 256 2.0 8.0 0.00 0.00 0.00 43 1010.8
20220818214638 80 316 2.0 11.0 0.00 0.00 0.00 41 1010.6
20220818214100 80 342 2.0 11.0 0.00 0.00 0.00 41 1010.7
20220818213558 80 15 1.0 11.0 0.00 0.00 0.00 41 1010.6
20220818213105 80 285 3.0 12.0 0.00 0.00 0.00 41 1010.6
20220818212602 80 192 3.0 12.0 0.00 0.00 0.00 41 1010.6
20220818212059 80 237 1.0 9.0 0.00 0.00 0.00 43 1010.4
20220818211611 80 273 1.0 10.0 0.00 0.00 0.00 43 1010.5
20220818211058 80 346 2.0 10.0 0.00 0.00 0.00 41 1010.3
20220818210604 80 242 2.0 10.0 0.00 0.00 0.00 43 1010.3
20220818210133 80 223 2.0 8.0 0.00 0.00 0.00 42 1010.3
20220818205559 80 231 3.0 9.0 0.00 0.00 0.00 43 1010.4
20220818205059 80 192 1.0 12.0 0.00 0.00 0.00 44 1010.2
20220818204607 81 205 3.0 12.0 0.00 0.00 0.00 42 1010.2
20220818204100 81 216 3.0 10.0 0.00 0.00 0.00 45 1010.0
20220818203558 81 115 2.0 10.0 0.00 0.00 0.00 43 1010.2
20220818203111 80 249 3.0 10.0 0.00 0.00 0.00 43 1010.2
20220818202601 79 0 1.0 8.0 0.00 0.00 0.00 46 1010.3
20220818202100 79 240 1.0 8.0 0.00 0.00 0.00 45 1010.3
20220818201616 80 303 2.0 10.0 0.00 0.00 0.00 45 1010.2
20220818201059 80 219 2.0 10.0 0.00 0.00 0.00 44 1010.2
20220818200604 80 265 3.0 7.0 0.00 0.00 0.00 45 1010.1
20220818200112 81 308 3.0 6.0 0.00 0.00 0.00 46 1010.1
20220818195559 81 252 2.0 10.0 0.00 0.00 0.00 47 1010.1
20220818195101 81 261 2.0 10.0 0.00 0.00 0.00 45 1010.0
20220818194658 81 296 2.0 11.0 0.00 0.00 0.00 46 1010.0
20220818194104 81 304 3.0 11.0 0.00 0.00 0.00 46 1010.1
20220818193602 81 339 1.0 8.0 0.00 0.00 0.00 47 1010.0
20220818193137 80 0 2.0 8.0 0.00 0.00 0.00 50 1010.0
20220818192600 80 283 3.0 9.0 0.00 0.00 0.00 47 1010.1
20220818192111 79 267 3.0 9.0 0.00 0.00 0.00 48 1010.2
20220818191637 79 245 2.0 10.0 0.00 0.00 0.00 49 1010.1
20220818191059 79 296 2.0 10.0 0.00 0.00 0.00 52 1010.0
20220818190559 79 309 2.0 13.0 0.00 0.00 0.00 49 1010.0
20220818190145 79 248 3.0 13.0 0.00 0.00 0.00 50 1010.0
20220818185602 79 296 3.0 10.0 0.00 0.00 0.00 48 1009.9
20220818185105 79 236 3.0 11.0 0.00 0.00 0.00 48 1009.8
20220818184620 79 273 3.0 11.0 0.00 0.00 0.00 49 1009.9
20220818184058 79 327 3.0 8.0 0.00 0.00 0.00 47 1009.9
20220818183604 80 234 2.0 8.0 0.00 0.00 0.00 50 1010.0
20220818183113 82 225 1.0 5.0 0.00 0.00 0.00 50 1010.1
20220818182558 82 134 2.0 5.0 0.00 0.00 0.00 49 1010.0
20220818182103 81 294 1.0 7.0 0.00 0.00 0.00 53 1010.1
20220818181615 78 316 1.0 8.0 0.00 0.00 0.00 56 1010.1
20220818181058 79 182 2.0 8.0 0.00 0.00 0.00 52 1010.2
20220818180600 81 219 2.0 8.0 0.00 0.00 0.00 50 1010.2
20220818180138 80 288 1.0 8.0 0.00 0.00 0.00 54 1010.0
20220818175600 78 323 3.0 14.0 0.00 0.00 0.00 51 1010.1
20220818175056 78 254 2.0 14.0 0.00 0.00 0.00 49 1010.1
20220818174614 80 221 3.0 9.0 0.00 0.00 0.00 49 1010.1
20220818174101 81 234 4.0 9.0 0.00 0.00 0.00 51 1010.1
20220818173600 81 310 2.0 8.0 0.00 0.00 0.00 48 1010.1
20220818173143 81 50 3.0 10.0 0.00 0.00 0.00 49 1010.2
20220818172557 80 78 3.0 12.0 0.00 0.00 0.00 52 1010.1
20220818172101 78 215 2.0 12.0 0.00 0.00 0.00 54 1010.2
20220818171610 78 338 2.0 15.0 0.00 0.00 0.00 51 1010.1
20220818171100 79 279 2.0 15.0 0.00 0.00 0.00 54 1010.2
20220818170558 78 258 3.0 15.0 0.00 0.00 0.00 56 1010.2
20220818170115 79 279 2.0 8.0 0.00 0.00 0.00 52 1010.1
20220818165558 79 259 3.0 8.0 0.00 0.00 0.00 52 1010.1
20220818165059 79 265 3.0 6.0 0.00 0.00 0.00 52 1010.0
20220818164612 77 32 2.0 12.0 0.00 0.00 0.00 53 1010.0
20220818164057 77 251 3.0 14.0 0.00 0.00 0.00 52 1010.0
20220818163600 79 227 3.0 14.0 0.00 0.00 0.00 51 1010.0
20220818163125 77 316 4.0 14.0 0.00 0.00 0.00 51 1010.0
20220818162600 79 233 4.0 10.0 0.00 0.00 0.00 52 1010.0
20220818162106 79 322 3.0 10.0 0.00 0.00 0.00 52 1010.0
20220818161614 79 208 2.0 6.0 0.00 0.00 0.00 52 1010.0
20220818161100 79 240 2.0 10.0 0.00 0.00 0.00 53 1009.9
20220818160600 79 242 1.0 11.0 0.00 0.00 0.00 54 1010.0
20220818160110 78 301 3.0 11.0 0.00 0.00 0.00 56 1010.2
20220818155603 77 103 1.0 8.0 0.00 0.00 0.00 56 1010.0
20220818155057 77 207 2.0 9.0 0.00 0.00 0.00 56 1010.1
20220818154616 77 292 1.0 9.0 0.00 0.00 0.00 57 1010.2
20220818154104 78 294 2.0 11.0 0.00 0.00 0.00 56 1010.2
20220818153604 77 320 2.0 11.0 0.00 0.00 0.00 53 1010.2
20220818153114 76 323 2.0 8.0 0.00 0.00 0.00 58 1010.4
20220818152607 75 319 2.0 8.0 0.00 0.00 0.00 59 1010.4
20220818152056 75 228 3.0 8.0 0.00 0.00 0.00 58 1010.4
20220818151621 76 94 2.0 11.0 0.00 0.00 0.00 58 1010.5
20220818151057 76 236 3.0 11.0 0.00 0.00 0.00 58 1010.5
20220818150557 76 352 2.0 8.0 0.00 0.00 0.00 60 1010.6
20220818150209 75 256 2.0 8.0 0.00 0.00 0.00 60 1010.6
20220818145600 75 265 2.0 9.0 0.00 0.00 0.00 62 1010.8
20220818145057 75 247 2.0 9.0 0.00 0.00 0.00 64 1010.8
20220818144646 74 254 4.0 10.0 0.00 0.00 0.00 61 1010.8
20220818144057 74 332 2.0 10.0 0.00 0.00 0.00 62 1010.9
20220818143605 73 286 3.0 10.0 0.00 0.00 0.00 62 1010.9
20220818143113 73 235 2.0 7.0 0.00 0.00 0.00 61 1010.8
20220818142558 73 229 2.0 9.0 0.00 0.00 0.00 63 1010.9
20220818142058 72 137 3.0 14.0 0.00 0.00 0.00 62 1010.9
20220818141610 72 284 2.0 14.0 0.00 0.00 0.00 64 1010.9
20220818141101 72 207 3.0 14.0 0.00 0.00 0.00 63 1010.8
20220818140603 72 293 2.0 11.0 0.00 0.00 0.00 63 1010.7
20220818140113 72 253 4.0 13.0 0.00 0.00 0.00 63 1010.9
20220818135605 72 199 4.0 13.0 0.00 0.00 0.00 63 1010.9
20220818135059 73 319 2.0 12.0 0.00 0.00 0.00 62 1010.7
20220818134617 73 323 3.0 12.0 0.00 0.00 0.00 64 1010.7
20220818134058 72 204 0.0 13.0 0.00 0.00 0.00 64 1010.8
20220818133601 71 269 2.0 13.0 0.00 0.00 0.00 65 1010.7
20220818133112 71 248 5.0 13.0 0.00 0.00 0.00 63 1010.9
20220818132557 71 202 2.0 6.0 0.00 0.00 0.00 66 1010.8
20220818132101 71 193 2.0 8.0 0.00 0.00 0.00 67 1010.7
20220818131617 71 261 1.0 10.0 0.00 0.00 0.00 68 1010.7
20220818131057 70 284 3.0 10.0 0.00 0.00 0.00 66 1010.9
20220818130602 70 243 3.0 10.0 0.00 0.00 0.00 68 1010.9
20220818130119 69 77 1.0 9.0 0.00 0.00 0.00 69 1010.9
20220818125600 69 234 3.0 9.0 0.00 0.00 0.00 69 1011.0
20220818125058 68 270 3.0 11.0 0.00 0.00 0.00 70 1011.0
20220818124609 68 298 2.0 11.0 0.00 0.00 0.00 72 1011.0
20220818124101 68 0 3.0 11.0 0.00 0.00 0.00 71 1010.9
20220818123557 68 0 3.0 11.0 0.00 0.00 0.00 71 1010.8
20220818123113 68 222 2.0 12.0 0.00 0.00 0.00 72 1010.8
20220818122557 68 281 3.0 12.0 0.00 0.00 0.00 73 1010.8
20220818122059 67 180 3.0 8.0 0.00 0.00 0.00 74 1010.8
20220818121615 67 237 3.0 9.0 0.00 0.00 0.00 75 1010.7
20220818121057 67 278 2.0 9.0 0.00 0.00 0.00 76 1010.8
20220818120600 66 265 4.0 9.0 0.00 0.00 0.00 76 1010.8
20220818120111 66 256 2.0 9.0 0.00 0.00 0.00 77 1010.8
20220818115557 66 149 2.0 9.0 0.00 0.00 0.00 78 1010.7
20220818115101 65 0 2.0 12.0 0.00 0.00 0.00 78 1010.7
20220818114619 65 294 2.0 13.0 0.00 0.00 0.00 79 1010.6
20220818114057 65 277 2.0 13.0 0.00 0.00 0.00 79 1010.6
20220818113600 65 154 1.0 6.0 0.00 0.00 0.00 80 1010.6
20220818113108 64 167 0.0 4.0 0.00 0.00 0.00 80 1010.6
20220818112559 64 200 1.0 9.0 0.00 0.00 0.00 81 1010.6
20220818112111 64 0 2.0 9.0 0.00 0.00 0.00 81 1010.6
20220818111617 63 214 1.0 4.0 0.00 0.00 0.00 82 1010.5
20220818111058 63 221 0.0 4.0 0.00 0.00 0.00 83 1010.5
20220818110557 63 248 1.0 6.0 0.00 0.00 0.00 83 1010.6
20220818110135 63 262 1.0 6.0 0.00 0.00 0.00 83 1010.6
20220818105601 63 236 1.0 5.0 0.00 0.00 0.00 84 1010.6
20220818105056 62 222 1.0 5.0 0.00 0.00 0.00 84 1010.7
20220818104611 62 246 1.0 6.0 0.00 0.00 0.00 85 1010.5
20220818104057 62 234 1.0 6.0 0.00 0.00 0.00 86 1010.5
20220818103600 62 226 1.0 4.0 0.00 0.00 0.00 86 1010.4
20220818103111 61 242 1.0 4.0 0.00 0.00 0.00 87 1010.5
20220818102603 61 237 0.0 4.0 0.00 0.00 0.00 87 1010.4
20220818102106 61 185 0.0 3.0 0.00 0.00 0.00 87 1010.3
20220818101614 61 238 1.0 3.0 0.00 0.00 0.00 87 1010.3
20220818101058 61 0 1.0 3.0 0.00 0.00 0.00 87 1010.3
20220818100604 61 238 0.0 3.0 0.00 0.00 0.00 87 1010.2
20220818100155 61 257 0.0 2.0 0.00 0.00 0.00 87 1010.1
20220818095558 61 168 0.0 3.0 0.00 0.01 0.00 87 1010.0
20220818095057 61 0 0.0 3.0 0.00 0.01 0.00 86 1009.9
20220818094614 61 151 0.0 2.0 0.00 0.01 0.00 86 1009.9
20220818094056 62 217 0.0 2.0 0.00 0.01 0.00 86 1009.9
20220818093557 62 0 0.0 2.0 0.00 0.01 0.00 85 1009.8
20220818093119 62 0 0.0 5.0 0.00 0.01 0.00 85 1009.9
20220818092601 62 263 0.0 5.0 0.00 0.01 0.00 85 1009.9
20220818092101 62 0 0.0 4.0 0.00 0.01 0.00 85 1010.0
20220818091617 62 352 1.0 4.0 0.00 0.01 0.00 85 1010.0
20220818091059 62 48 1.0 4.0 0.00 0.01 0.00 85 1010.1
20220818090559 62 236 1.0 4.0 0.00 0.01 0.00 85 1010.1
20220818090113 62 0 0.0 3.0 0.00 0.01 0.00 85 1010.1
20220818085557 62 0 0.0 3.0 0.00 0.02 0.00 84 1010.1
20220818085057 63 204 1.0 3.0 0.00 0.02 0.00 84 1010.1
20220818084611 63 275 0.0 4.0 0.00 0.02 0.00 84 1010.1
20220818084104 62 246 1.0 4.0 0.00 0.02 0.00 84 1010.1
20220818083559 63 246 0.0 10.0 0.00 0.02 0.00 84 1010.1
20220818083110 62 321 1.0 10.0 0.00 0.02 0.00 84 1010.0
20220818082559 62 215 1.0 10.0 0.00 0.02 0.00 84 1010.0
20220818082058 63 209 0.0 4.0 0.00 0.02 0.00 84 1010.0
20220818081609 63 230 0.0 4.0 0.00 0.02 0.00 84 1010.0
20220818081058 62 205 1.0 3.0 0.00 0.02 0.00 84 1010.0
20220818080557 63 161 0.0 2.0 0.00 0.02 0.00 84 1010.0
20220818080113 63 0 0.0 2.0 0.00 0.02 0.00 84 1010.0
20220818075559 63 262 0.0 5.0 0.00 0.03 0.00 84 1010.0
20220818075059 63 0 0.0 5.0 0.00 0.03 0.00 84 1010.0
20220818074620 63 211 0.0 3.0 0.00 0.03 0.00 84 1010.0
20220818074058 63 0 0.0 3.0 0.00 0.03 0.00 83 1010.0
20220818073557 63 201 0.0 4.0 0.00 0.03 0.00 83 1010.0
20220818073109 63 0 1.0 4.0 0.00 0.03 0.00 83 1010.0
20220818072607 64 196 1.0 4.0 0.00 0.03 0.00 83 1010.0
20220818072102 64 0 0.0 3.0 0.00 0.03 0.00 83 1010.0
20220818071609 64 221 0.0 2.0 0.00 0.03 0.00 83 1010.0
20220818071101 64 0 0.0 2.0 0.00 0.03 0.00 83 1010.0
20220818070600 64 0 0.0 3.0 0.00 0.03 0.00 82 1010.0
20220818070124 64 209 0.0 4.0 0.00 0.03 0.00 82 1010.0
20220818065558 64 180 0.0 4.0 0.00 0.05 0.00 82 1010.1
20220818065057 64 0 0.0 3.0 0.00 0.05 0.00 82 1010.1
20220818064613 64 262 0.0 5.0 0.00 0.05 0.00 82 1010.1
20220818064058 64 0 0.0 5.0 0.00 0.05 0.00 82 1010.1
20220818063558 64 213 1.0 5.0 0.00 0.05 0.00 82 1010.1
20220818063114 64 0 1.0 5.0 0.00 0.05 0.00 82 1010.0
20220818062600 64 206 1.0 5.0 0.00 0.05 0.00 83 1010.0
20220818062100 64 216 0.0 4.0 0.00 0.05 0.00 84 1010.1
20220818061618 64 211 1.0 5.0 0.00 0.05 0.00 83 1010.1
20220818061107 64 296 1.0 5.0 0.00 0.05 0.00 83 1010.1
20220818060600 64 300 0.0 4.0 0.00 0.05 0.00 83 1010.2
20220818060115 64 0 1.0 4.0 0.00 0.05 0.00 83 1010.2
20220818055600 64 215 0.0 4.0 0.00 0.06 0.00 84 1010.3
20220818055056 63 197 0.0 3.0 0.00 0.06 0.00 84 1010.3
20220818054615 63 207 0.0 3.0 0.00 0.06 0.00 84 1010.4
20220818054059 63 194 0.0 3.0 0.00 0.06 0.00 84 1010.4
20220818053559 63 256 0.0 5.0 0.00 0.06 0.00 84 1010.4
20220818053159 63 201 1.0 5.0 0.00 0.06 0.00 84 1010.4
20220818052600 63 217 0.0 5.0 0.00 0.06 0.00 83 1010.5
20220818052057 63 227 0.0 5.0 0.00 0.06 0.00 84 1010.4
20220818051604 63 0 1.0 5.0 0.00 0.06 0.00 84 1010.4
20220818051101 63 0 1.0 3.0 0.00 0.06 0.00 84 1010.4
20220818050558 62 0 0.0 1.0 0.00 0.06 0.00 84 1010.5
20220818050216 62 0 0.0 1.0 0.00 0.06 0.00 83 1010.6
20220818045600 62 0 0.0 3.0 0.00 0.06 0.00 83 1010.5
20220818045100 62 0 0.0 3.0 0.00 0.06 0.00 83 1010.6
20220818044611 63 244 0.0 3.0 0.00 0.06 0.00 83 1010.7
20220818044059 63 0 0.0 3.0 0.00 0.06 0.00 82 1010.8
20220818043601 63 0 0.0 3.0 0.00 0.06 0.00 82 1010.9
20220818043159 63 0 0.0 2.0 0.00 0.06 0.00 82 1011.0
20220818042604 63 0 0.0 4.0 0.00 0.06 0.00 81 1011.0
20220818042104 63 277 1.0 4.0 0.00 0.06 0.00 81 1011.1
20220818041613 63 0 2.0 4.0 0.00 0.06 0.00 81 1011.1
20220818041102 63 0 0.0 2.0 0.00 0.06 0.00 80 1011.1
20220818040610 64 0 0.0 2.0 0.00 0.06 0.00 80 1011.2
20220818040117 64 224 0.0 2.0 0.00 0.06 0.00 80 1011.2
20220818035603 63 216 0.0 2.0 0.00 0.06 0.06 81 1011.3
20220818035100 63 0 0.0 2.0 0.00 0.06 0.06 81 1011.2
20220818034610 63 208 0.0 4.0 0.00 0.06 0.06 81 1011.3
20220818034102 63 169 0.0 4.0 0.00 0.06 0.06 81 1011.3
20220818033604 62 0 0.0 1.0 0.00 0.06 0.06 82 1011.4
20220818033108 62 0 0.0 1.0 0.00 0.06 0.06 83 1011.5
20220818032600 62 0 0.0 0.0 0.00 0.06 0.06 84 1011.4
20220818032108 62 0 0.0 0.0 0.00 0.06 0.06 82 1011.5
20220818031610 62 0 0.0 0.0 0.00 0.06 0.06 82 1011.5
20220818031059 62 0 0.0 0.0 0.00 0.06 0.06 82 1011.6
20220818030559 62 0 0.0 0.0 0.00 0.06 0.06 82 1011.6
20220818030126 62 0 0.0 1.0 0.00 0.06 0.06 82 1011.6
20220818025558 62 0 0.0 1.0 0.00 0.06 0.06 82 1011.7
20220818025106 63 0 0.0 1.0 0.00 0.06 0.06 81 1011.8
20220818024625 63 0 0.0 0.0 0.00 0.06 0.06 80 1011.8
20220818024102 63 0 0.0 1.0 0.00 0.06 0.06 80 1011.9
20220818023600 64 0 0.0 1.0 0.00 0.06 0.06 78 1011.9
20220818023113 64 0 0.0 1.0 0.00 0.06 0.06 79 1012.0
20220818022558 64 0 0.0 1.0 0.00 0.06 0.06 79 1012.0
20220818022106 64 0 0.0 1.0 0.00 0.06 0.06 80 1012.0
20220818021611 64 0 0.0 1.0 0.00 0.06 0.06 79 1012.1
20220818021102 65 0 0.0 1.0 0.00 0.06 0.06 78 1012.3
20220818020603 65 0 0.0 1.0 0.00 0.06 0.06 79 1012.3
20220818020139 65 0 0.0 1.0 0.00 0.06 0.06 79 1012.4
20220818015600 65 0 0.0 0.0 0.00 0.06 0.06 77 1012.7
20220818015100 65 0 0.0 0.0 0.00 0.06 0.06 77 1012.8
20220818014639 65 0 0.0 2.0 0.00 0.06 0.06 78 1012.9
20220818014110 65 0 0.0 2.0 0.00 0.06 0.06 78 1013.0
20220818013600 65 0 0.0 1.0 0.00 0.06 0.06 78 1013.2
20220818013115 65 0 0.0 1.0 0.00 0.06 0.06 79 1013.2
20220818012559 65 0 0.0 1.0 0.00 0.06 0.06 78 1013.3
20220818012103 65 0 0.0 0.0 0.00 0.06 0.06 77 1013.4
20220818011614 65 0 0.0 2.0 0.00 0.06 0.06 78 1013.4
20220818011101 65 0 0.0 2.0 0.00 0.06 0.06 76 1013.4
20220818010558 65 259 0.0 2.0 0.00 0.06 0.06 76 1013.6
20220818010111 65 0 0.0 0.0 0.00 0.06 0.06 77 1013.5
20220818005559 65 0 0.0 0.0 0.00 0.06 0.06 77 1013.5
20220818005106 65 0 0.0 0.0 0.00 0.06 0.06 76 1013.4
20220818004637 65 0 0.0 0.0 0.00 0.06 0.06 75 1013.4
20220818004101 66 0 0.0 0.0 0.00 0.06 0.06 75 1013.5
20220818003559 66 0 0.0 0.0 0.00 0.06 0.06 74 1013.6
20220818003116 66 0 0.0 0.0 0.00 0.06 0.06 75 1013.6
20220818002600 66 0 0.0 1.0 0.00 0.06 0.06 74 1013.6
20220818002059 66 0 0.0 2.0 0.00 0.06 0.06 72 1013.4
20220818001611 66 0 0.0 2.0 0.00 0.06 0.06 72 1013.2
20220818001100 67 0 0.0 2.0 0.00 0.06 0.06 71 1013.4
20220818000601 67 0 0.0 2.0 0.00 0.06 0.06 72 1013.4
20220818000110 67 0 0.0 2.0 0.00 0.06 0.06 71 1013.4
20220817235600 67 259 0.0 2.0 0.00 0.06 0.06 71 1013.5
20220817235105 68 294 0.0 2.0 0.00 0.06 0.06 67 1013.5
20220817234616 68 0 0.0 3.0 0.00 0.06 0.06 67 1013.6
20220817234100 68 269 0.0 4.0 0.00 0.06 0.06 67 1013.5
20220817233601 68 0 0.0 7.0 0.00 0.06 0.06 67 1013.6
20220817233110 68 279 0.0 7.0 0.00 0.06 0.06 66 1013.5
20220817232602 68 321 1.0 5.0 0.00 0.06 0.06 65 1013.5
20220817232104 68 5 0.0 3.0 0.00 0.06 0.06 64 1013.5
20220817231611 69 0 1.0 3.0 0.00 0.06 0.06 64 1013.5
20220817231056 69 126 0.0 3.0 0.00 0.06 0.06 62 1013.5
20220817230600 69 0 0.0 3.0 0.00 0.06 0.06 62 1013.4
20220817230120 69 37 1.0 5.0 0.00 0.06 0.06 62 1013.5
20220817225600 69 0 1.0 5.0 0.00 0.06 0.06 61 1013.5
20220817225103 69 38 1.0 6.0 0.00 0.06 0.06 59 1013.5
20220817224609 69 346 2.0 6.0 0.00 0.06 0.06 60 1013.5
20220817224103 69 24 1.0 5.0 0.00 0.06 0.06 60 1013.7